Find BSAT-2c

NORAD ID: 27830 Int'l Des: 2003-028 Owner: BSAT Country: J operational
HEOCIRCULAR

当前视图

正在加载3D地球...

关于 BSAT-2c

正在加载描述...

即将过境

Passes for default location (London). Set your location on the main map for personalized predictions.

高度历史

Loading altitude history...

两行轨道根数

1 27830U 03028A 26145.86572442 .00000036 00000-0 00000-0 0 9998
2 27830 10.1351 52.2491 0006587 279.9423 259.2063 0.99200544 46435
Epoch: May 25, 2026 • Age: 18 hours

当前状态

高度 36115.8 km
速度 3.06 km/s
星下点 10.15°N, 33.39°E
发射日期 Jun 11, 2003
运行时间 22.9 years
类型 other

技术详情

分类 Payload
质量 608.00 kg
干质量 490.00 kg
总质量 1275.00 kg
长度 3.80 m
直径 2.20 m
跨度 11.50 m
形状 Box + 2 Pan
制造商 OSCD
平台类型 OSC Star 1
阶段状态 In Orbit
所有者/国家 BSAT/J

Most Searched